Regional Weather Roundup
Issued by NWS Midland/Odessa, TX

Skip options and go directly to product.
Home | Oldest Version | Previous Version | Current Version | All | Graphics & Text | Save Text | Print | Product List | Glossary On

Skip product version selection by date and time.   
074
ASUS44 KMAF 290410
RWRMAF
MIDLAND AREA WEATHER ROUNDUP
NATIONAL WEATHER SERVICE MIDLAND TX
1100 PM CDT SAT MAR 28 2015

...IN SOUTHWEST TEXAS AND SOUTHEAST NEW MEXICO...

CITY           SKY/WX    TMP DP  RH WIND       PRES   REMARKS
ALPINE         CLEAR     62  22  21 W10       30.20R
ANDREWS        FAIR      64  31  29 W5        30.02S
ARTESIA        CLEAR     59  25  27 SW12G18   30.03S
BIG SPRING     CLEAR     66  38  34 SE10      30.02R
CARLSBAD       CLEAR     61  37  41 W14       30.01R
DRYDEN           N/A     69  38  32 E5        30.02R
FORT STOCKTON  CLEAR     66  39  37 SE14      30.04R
GUAD PASS      CLEAR     70  11  10 W12       30.19R
HOBBS          CLEAR     57  25  28 CALM      30.05R
MARFA          CLEAR     54  25  32 N13       30.19S
MIDLAND AIRPK  CLEAR     72  39  30 S13       30.01S
MIDLAND INTL   CLEAR     68  42  38 S9        30.01R
ODESSA         CLEAR     68  36  30 SW9       30.03R
PECOS          CLEAR     62  36  38 SW9       30.00R
PRESIDIO       FAIR      67  36  30 N8        30.04S
SEMINOLE       CLEAR     59  32  36 CALM      30.03S
SNYDER         CLEAR     69  37  31 E9        30.01R
WINK           CLEAR     67  32  27 S6        29.99R
$$
...OTHER STATIONS IN TEXAS...

CITY           SKY/WX    TMP DP  RH WIND       PRES   REMARKS
ABILENE        CLEAR     74  37  26 S18G24    29.96S
AMARILLO       CLEAR     60  30  32 SE13      30.01F
AUSTIN         CLEAR     62  48  60 S10       30.07R
BROWNSVILLE    CLEAR     64  61  90 S8        30.17R
CORPUS CHRISTI CLEAR     65  59  81 S18       30.13R
DALLAS FTW     PTCLDY    70  45  40 S10       29.99S
DEL RIO        CLEAR     72  43  35 SE10      30.02R
EL PASO        CLEAR     74   1   6 E5        30.09R
HOUSTON INT    CLEAR     66  51  58 S8        30.11S
LUBBOCK        CLEAR     61  32  33 SE10      30.01S
SAN ANGELO     CLEAR     70  36  28 S17       29.99S
SAN ANTONIO    CLEAR     68  54  60 S10       30.09R
WACO           CLEAR     63  48  58 S10       30.02R
WICHITA FALLS  NOT AVBL
$$
...OTHER LOCATIONS IN NEW MEXICO...

CITY           SKY/WX    TMP DP  RH WIND       PRES   REMARKS
ALAMAGORDO     CLEAR     64  14  14 SE7       30.07S
ALBUQUERQUE    CLEAR     66   9  10 W8        30.13R
CANNON AFB     CLEAR     61  27  27 SE6       30.05R
CLOVIS         CLEAR     59  27  29 S5        30.04S
HOLLOMAN AFB   PTCLDY    63  18  17 S8        30.05S
ROSWELL        CLEAR     60  26  27 W9        30.02S
RUIDOSO        CLEAR     54  14  20 SW9       30.25R
SANTA FE       CLEAR     53  13  20 N9        30.16R
TRUTH OR CONSE CLEAR     70   5   8 VRB7      30.11R
TUCUMCARI      CLEAR     56  26  31 S8        29.98F
$$

USA.gov is the U.S. government's official web portal to all federal, state and local government web resources and services.